User: anonymous   Login
Location: Unspecified
(0.0000°N, 0.0000°E)
Time: 14:00:14
(UTC+00:00)
Language:

AO-7 - Orbit

View from above orbital plane
View from above orbital plane
View from above satellite
View from above satellite

Ground track
Ground track

The orbit data is extracted from the following two-line orbital elements,

1 07530U 74089B   18051.18596251 -.00000027  00000-0  11259-3 0  9996
2 07530 101.6715  20.3350 0011906 200.5560 230.0655 12.53631163979935
Epoch (UTC): 20 February 2018 04:27:47
Eccentricity: 0.0011906
inclination: 101.6715°
perigee height: 1440 km
apogee height: 1458 km
right ascension of ascending node: 20.3350°
argument of perigee: 200.5560°
revolutions per day: 12.53631163
mean anomaly at epoch: 230.0655°
orbit number at epoch: 97993

The dashed part of the orbit path shows where the satellite is in the earth's shadow,  

DLR